When you browse on this site, cookies collect data to enhance your experience and personalize the content and advertising you see.
Visit our Privacy Policy to learn more. By continuing to use the site, you agree to this use of cookies and data.
  • In Deutschland
  • Länderverzeichnis
  • Für 7 Tage
  • Wassertemperatur
  • Wetterkarte
  • Widgets
  • user-avatar
    Anmelden

    Stündliche Wetter Dunedin

    Heute, 31 März, Dienstag

    Zeit Temperatur Niederschläge Wind Luftdruck Luftfeuchtigkeit
    00:00 +11°C° 0 mm 6 m/S 756 mmHg 97%
    01:00 +11°C° 0 mm 6 m/S 756 mmHg 97%
    02:00 +11°C° 0 mm 6 m/S 756 mmHg 97%
    03:00 +11°C° 0 mm 6 m/S 756 mmHg 97%
    04:00 +11°C° 0 mm 6 m/S 755 mmHg 97%
    05:00 +11°C° 0 mm 6 m/S 755 mmHg 97%
    06:00 +11°C° 0 mm 6 m/S 755 mmHg 96%
    07:00 +13°C° 0 mm 5 m/S 755 mmHg 94%
    08:00 +13°C° 0 mm 5 m/S 755 mmHg 93%
    09:00 +13°C° 0 mm 5 m/S 755 mmHg 90%
    10:00 +14°C° 0 mm 5 m/S 754 mmHg 88%
    11:00 +15°C° 0 mm 6 m/S 754 mmHg 87%
    12:00 +15°C° 0 mm 5 m/S 754 mmHg 85%
    13:00 +15°C° 0 mm 5 m/S 753 mmHg 83%
    14:00 +15°C° 0 mm 5 m/S 753 mmHg 81%
    15:00 +14°C° 0 mm 5 m/S 752 mmHg 84%
    16:00 +14°C° 0 mm 5 m/S 752 mmHg 87%
    17:00 +13°C° 0 mm 5 m/S 752 mmHg 90%
    18:00 +12°C° 0 mm 5 m/S 753 mmHg 93%
    19:00 +11°C° 0 mm 4 m/S 753 mmHg 96%
    20:00 +10°C° 0 mm 4 m/S 753 mmHg 98%
    21:00 +10°C° 0 mm 4 m/S 753 mmHg 98%
    22:00 +10°C° 0 mm 3 m/S 753 mmHg 97%
    23:00 +10°C° 0 mm 3 m/S 753 mmHg 96%

    Morgen, 1 April, Mittwoch

    Zeit Temperatur Niederschläge Wind Luftdruck Luftfeuchtigkeit
    00:00 +10°C° 0 mm 3 m/S 753 mmHg 96%
    01:00 +10°C° 0 mm 2 m/S 753 mmHg 95%
    02:00 +9°C° 0 mm 2 m/S 753 mmHg 95%
    03:00 +10°C° 0 mm 1 m/S 753 mmHg 94%
    04:00 +10°C° 0 mm 1 m/S 753 mmHg 94%
    05:00 +10°C° 0 mm 1 m/S 753 mmHg 93%
    06:00 +11°C° 0 mm 1 m/S 753 mmHg 87%
    07:00 +13°C° 0 mm 1 m/S 754 mmHg 81%
    08:00 +15°C° 0 mm 1 m/S 754 mmHg 75%
    09:00 +16°C° 0 mm 1 m/S 754 mmHg 69%
    10:00 +19°C° 0 mm 1 m/S 754 mmHg 62%
    11:00 +21°C° 0 mm 1 m/S 754 mmHg 56%
    12:00 +20°C° 0 mm 2 m/S 753 mmHg 57%
    13:00 +20°C° 0 mm 2 m/S 753 mmHg 58%
    14:00 +20°C° 0 mm 2 m/S 753 mmHg 58%
    15:00 +19°C° 0 mm 1 m/S 753 mmHg 68%
    16:00 +16°C° 0 mm 1 m/S 753 mmHg 77%
    17:00 +14°C° 0 mm 1 m/S 753 mmHg 87%
    18:00 +13°C° 0 mm 1 m/S 753 mmHg 90%
    19:00 +12°C° 0 mm 1 m/S 754 mmHg 93%
    20:00 +11°C° 0 mm 1 m/S 754 mmHg 96%
    21:00 +11°C° 0 mm 1 m/S 754 mmHg 96%
    22:00 +11°C° 0 mm 1 m/S 754 mmHg 95%
    23:00 +11°C° 0 mm 1 m/S 754 mmHg 95%

    übermorgen, 2 April, Donnerstag

    Zeit Temperatur Niederschläge Wind Luftdruck Luftfeuchtigkeit
    00:00 +11°C° 0 mm 1 m/S 754 mmHg 94%
    01:00 +11°C° 0 mm 1 m/S 754 mmHg 93%
    02:00 +11°C° 0 mm 1 m/S 754 mmHg 93%
    03:00 +10°C° 0 mm 1 m/S 754 mmHg 91%
    04:00 +10°C° 0 mm 1 m/S 754 mmHg 90%
    05:00 +10°C° 0 mm 1 m/S 754 mmHg 89%
    06:00 +12°C° 0 mm 1 m/S 754 mmHg 83%
    07:00 +14°C° 0 mm 1 m/S 754 mmHg 77%
    08:00 +15°C° 0 mm 0 m/S 755 mmHg 70%
    09:00 +18°C° 0 mm 1 m/S 754 mmHg 64%
    10:00 +20°C° 0 mm 1 m/S 754 mmHg 57%
    11:00 +22°C° 0 mm 1 m/S 754 mmHg 51%
    12:00 +21°C° 0 mm 1 m/S 754 mmHg 54%
    13:00 +20°C° 0 mm 2 m/S 754 mmHg 57%
    14:00 +19°C° 0 mm 2 m/S 753 mmHg 60%
    15:00 +17°C° 0 mm 2 m/S 754 mmHg 68%
    16:00 +16°C° 0 mm 2 m/S 754 mmHg 76%
    17:00 +14°C° 0 mm 2 m/S 754 mmHg 84%
    18:00 +13°C° 0 mm 2 m/S 754 mmHg 87%
    19:00 +13°C° 0 mm 2 m/S 754 mmHg 91%
    20:00 +12°C° 0 mm 1 m/S 755 mmHg 95%
    21:00 +12°C° 0 mm 1 m/S 755 mmHg 95%
    22:00 +12°C° 0 mm 1 m/S 755 mmHg 95%
    23:00 +12°C° 0 mm 1 m/S 755 mmHg 95%

    3 April, Freitag

    Zeit Temperatur Niederschläge Wind Luftdruck Luftfeuchtigkeit
    00:00 +11°C° 0 mm 1 m/S 754 mmHg 96%
    01:00 +10°C° 0 mm 0 m/S 754 mmHg 96%
    02:00 +9°C° 0 mm 0 m/S 754 mmHg 97%
    03:00 +9°C° 0 mm 0 m/S 754 mmHg 97%
    04:00 +10°C° 0 mm 1 m/S 755 mmHg 97%
    05:00 +10°C° 0 mm 1 m/S 755 mmHg 97%
    06:00 +11°C° 0 mm 1 m/S 755 mmHg 93%
    07:00 +12°C° 0 mm 1 m/S 755 mmHg 89%
    08:00 +13°C° 0 mm 1 m/S 755 mmHg 85%
    09:00 +14°C° 0 mm 1 m/S 755 mmHg 82%
    10:00 +14°C° 0 mm 2 m/S 755 mmHg 79%
    11:00 +14°C° 0 mm 3 m/S 755 mmHg 76%
    12:00 +14°C° 0 mm 3 m/S 755 mmHg 77%
    13:00 +14°C° 0 mm 3 m/S 755 mmHg 77%
    14:00 +14°C° 0 mm 4 m/S 754 mmHg 78%
    15:00 +13°C° 0 mm 4 m/S 754 mmHg 81%
    16:00 +12°C° 0 mm 4 m/S 754 mmHg 84%
    17:00 +12°C° 0 mm 4 m/S 754 mmHg 87%
    18:00 +11°C° 0 mm 4 m/S 755 mmHg 90%
    19:00 +11°C° 0 mm 4 m/S 755 mmHg 92%
    20:00 +9°C° 0 mm 5 m/S 756 mmHg 94%
    21:00 +9°C° 0 mm 5 m/S 756 mmHg 95%
    22:00 +9°C° 0 mm 5 m/S 755 mmHg 95%
    23:00 +9°C° 0 mm 5 m/S 755 mmHg 95%

    4 April, Samstag

    Zeit Temperatur Niederschläge Wind Luftdruck Luftfeuchtigkeit
    00:00 +9°C° 0 mm 5 m/S 755 mmHg 95%
    01:00 +9°C° 0 mm 5 m/S 755 mmHg 96%
    02:00 +9°C° 0 mm 5 m/S 755 mmHg 96%
    03:00 +9°C° 0 mm 5 m/S 755 mmHg 96%
    04:00 +9°C° 0 mm 5 m/S 755 mmHg 97%
    05:00 +9°C° 0 mm 5 m/S 755 mmHg 97%
    06:00 +10°C° 0 mm 5 m/S 756 mmHg 94%
    07:00 +10°C° 0 mm 5 m/S 756 mmHg 91%
    08:00 +12°C° 0 mm 5 m/S 756 mmHg 88%
    09:00 +14°C° 0 mm 5 m/S 756 mmHg 82%
    10:00 +15°C° 0 mm 6 m/S 756 mmHg 77%
    11:00 +16°C° 0 mm 6 m/S 756 mmHg 72%
    12:00 +16°C° 0 mm 6 m/S 755 mmHg 72%
    13:00 +17°C° 0 mm 6 m/S 755 mmHg 73%
    14:00 +17°C° 0 mm 6 m/S 755 mmHg 74%
    15:00 +16°C° 0 mm 6 m/S 755 mmHg 80%
    16:00 +14°C° 0 mm 6 m/S 754 mmHg 85%
    17:00 +13°C° 0 mm 6 m/S 754 mmHg 91%
    18:00 +11°C° 0 mm 6 m/S 755 mmHg 93%
    19:00 +11°C° 0 mm 6 m/S 755 mmHg 94%
    20:00 +10°C° 0 mm 6 m/S 755 mmHg 95%
    21:00 +10°C° 0 mm 6 m/S 755 mmHg 96%
    22:00 +9°C° 0 mm 6 m/S 755 mmHg 96%
    23:00 +9°C° 0 mm 6 m/S 755 mmHg 97%

    5 April, Sonntag

    Zeit Temperatur Niederschläge Wind Luftdruck Luftfeuchtigkeit
    00:00 +9°C° 0 mm 6 m/S 755 mmHg 97%
    01:00 +8°C° 0 mm 6 m/S 754 mmHg 97%
    02:00 +8°C° 0 mm 6 m/S 754 mmHg 97%
    03:00 +8°C° 0 mm 6 m/S 754 mmHg 97%
    04:00 +8°C° 0 mm 5 m/S 754 mmHg 96%
    05:00 +8°C° 0 mm 5 m/S 754 mmHg 96%
    06:00 +9°C° 0 mm 5 m/S 754 mmHg 92%
    07:00 +10°C° 0 mm 5 m/S 754 mmHg 88%
    08:00 +12°C° 0 mm 5 m/S 755 mmHg 84%
    09:00 +15°C° 0 mm 5 m/S 754 mmHg 75%
    10:00 +17°C° 0 mm 5 m/S 754 mmHg 67%
    11:00 +20°C° 0 mm 5 m/S 753 mmHg 58%
    12:00 +20°C° 0 mm 5 m/S 753 mmHg 56%
    13:00 +21°C° 0 mm 5 m/S 753 mmHg 55%
    14:00 +21°C° 0 mm 5 m/S 753 mmHg 53%
    15:00 +19°C° 0 mm 5 m/S 752 mmHg 64%
    16:00 +17°C° 0 mm 4 m/S 752 mmHg 74%
    17:00 +14°C° 0 mm 4 m/S 752 mmHg 84%
    18:00 +13°C° 0 mm 4 m/S 752 mmHg 84%
    19:00 +13°C° 0 mm 3 m/S 753 mmHg 84%
    20:00 +12°C° 0 mm 3 m/S 753 mmHg 84%
    21:00 +12°C° 0 mm 3 m/S 753 mmHg 81%
    22:00 +12°C° 0 mm 3 m/S 753 mmHg 77%
    23:00 +12°C° 0 mm 3 m/S 753 mmHg 74%
    Mehr zeigen